星链-31294 (STARLINK-31294 )

导读 | 豆包AI

STARLINK-31294是美国太空探索技术公司SpaceX星链星座的一员,于2024年2月10日发射入轨,属于星链互联网卫星组网项目的组成部分。它将和其他星链卫星协同,为全球范围提供高速低延迟的宽带互联网服务,尤其覆盖偏远地区等网络基础设施薄弱区域,进一步扩充星链星座的服务覆盖能力。

基本信息
目录编号:
58949
目录名称:
STARLINK-31294
国际标识:
2024-027U
轨道中心:
EARTH
卫星名称:
星链-31294
卫星全名:
星链-31294 (STARLINK-31294 )
卫星状态:
在轨 (已飞行810 天)
发射日期:
2024-02-10 UTC
国别 :
美国 (US)
星等 :
--
轨道信息
数据来源 国际轨道数据
星历时间: 2026-04-30T21:10:19+0800
9小时前
查看轨道信息
半长轴: 6853.366km
偏心率: 0.0001565
轨道倾角: 53.160°
近地点辐角 88.653°
升交点赤经 69.059°
平近点角 271.465°
近地点: 474.156km
远地点: 476.302km
周期: 94.106分钟
每日圈数: 15.301956
详细信息
固有亮度:
5
最大亮度:
0.3
卫星平台:
Starlink v2.0 mini
覆盖范围:
全球
运营商:
太空探索技术公司
运营商所在国:
美国
制造商(研发单位):
太空探索技术公司
制造商所在国:
美国
使用方式:
暂无
卫星简介
星链(Starlink)计划是由太空探索技术公司(SpaceX)提出的一个巨型低轨卫星互联网星座项目,计划在2019年至2024年间在太空搭建由约1.2万颗卫星组成的“星链”网络,其中1584颗将部署在地球上空550千米处的近地轨道,并从2020年开始工作。该卫星仍在工作。
2D轨道图
3D轨道图
轨道高度分析图
轨道倾角分析图
轨道综合分析图
查看轨道综合分析图